Weather History for Miami, FL

Change the Weather History Date:

Saturday, March 16, 2013

  Actual Average Record
Temperature  
Mean Temperature 66 °F 73 °F  
Max Temperature 76 °F 80 °F 91 °F (2008)
Min Temperature 56 °F 65 °F 44 °F (1988)
Degree Days  
Heating Degree Days 0 0  
Month to date heating degree days 24 8  
Since 1 July heating degree days 60 124  
Cooling Degree Days 1 8  
Month to date cooling degree days 38 120  
Year to date cooling degree days 517 442  
Growing Degree Days 15 (Base 50)    
Moisture  
Dew Point 51 °F    
Average Humidity 60    
Maximum Humidity 77    
Minimum Humidity 43    
Precipitation  
Precipitation 0.00 in 0.10 in 1.76 in (2007)
Month to date precipitation T 1.42  
Year to date precipitation 2.39 5.29  
Snow  
Snow 0.00 in - - ()
Month to date snowfall 0.0  
Since 1 July snowfall 0.0  
Snow Depth 0.00 in    
Sea Level Pressure  
Sea Level Pressure 30.16 in    
Wind  
Wind Speed 5 mph (East)    
Max Wind Speed 14 mph    
Max Gust Speed 24 mph    
Visibility 10 miles    
Events      
T = Trace of Precipitation, MM = Missing Value Source: NWS Daily Summary

Daily Weather History Graph

Daily Weather History Graph

Search for Another Location

Airport:

Trip Planner

Search our weather history database for the weather conditions in past years. The results will help you decide how hot, cold, wet, or windy it might be!

Date:

Astronomy

Mar. 16, 2013 Rise Set
Actual Time 7:29 AM EDT 7:30 PM EDT
Civil Twilight 7:06 AM EDT 7:53 PM EDT
Nautical Twilight 6:39 AM EDT 8:20 PM EDT
Astronomical Twilight 6:12 AM EDT 8:47 PM EDT
Moon 10:27 AM EDT (3/16) No Moon Set
Length of Visible Light 12h 47m
Length of Day
12h 01m
Waxing Crescent, 23% of the Moon is Illuminated
Mar 16
Waxing Crescent
Mar 19
First Quarter
Mar 27
Full
Apr 3
Last Quarter
Apr 10
New

Hourly Weather History & Observations

Time (EDT) Temp. Dew Point Humidity Pressure Visibility Wind Dir Wind Speed Gust Speed Precip Events Conditions
12:53 AM 64.0 °F 50.0 °F 60% 30.19 in 10.0 mi ENE 3.5 mph - N/A   Partly Cloudy
1:53 AM 64.0 °F 50.0 °F 60% 30.18 in 10.0 mi NE 3.5 mph - N/A   Partly Cloudy
2:53 AM 60.1 °F 48.9 °F 67% 30.17 in 10.0 mi Calm Calm - N/A   Partly Cloudy
3:53 AM 57.9 °F 48.0 °F 70% 30.17 in 10.0 mi Calm Calm - N/A   Partly Cloudy
4:53 AM 57.9 °F 48.9 °F 72% 30.16 in 8.0 mi NNW 3.5 mph - N/A   Scattered Clouds
5:53 AM 59.0 °F 51.1 °F 75% 30.16 in 10.0 mi NNW 4.6 mph - N/A   Scattered Clouds
6:53 AM 57.0 °F 50.0 °F 77% 30.18 in 10.0 mi Calm Calm - N/A   Partly Cloudy
7:53 AM 59.0 °F 52.0 °F 78% 30.20 in 10.0 mi Calm Calm - N/A   Partly Cloudy
8:53 AM 64.0 °F 54.0 °F 70% 30.20 in 10.0 mi Calm Calm - N/A   Partly Cloudy
9:53 AM 70.0 °F 50.0 °F 49% 30.21 in 10.0 mi NNW 4.6 mph - N/A   Scattered Clouds
10:53 AM 72.0 °F 51.1 °F 48% 30.21 in 10.0 mi NW 3.5 mph - N/A   Scattered Clouds
11:53 AM 73.9 °F 53.1 °F 48% 30.20 in 10.0 mi Variable 5.8 mph - N/A   Scattered Clouds
12:53 PM 72.0 °F 51.1 °F 48% 30.18 in 10.0 mi Variable 6.9 mph - N/A   Scattered Clouds
1:53 PM 73.0 °F 51.1 °F 46% 30.17 in 10.0 mi SE 6.9 mph 16.1 mph N/A   Scattered Clouds
2:53 PM 75.0 °F 52.0 °F 44% 30.14 in 10.0 mi ESE 11.5 mph - N/A   Scattered Clouds
3:53 PM 73.0 °F 51.1 °F 46% 30.12 in 10.0 mi ESE 9.2 mph 17.3 mph N/A   Scattered Clouds
4:53 PM 72.0 °F 50.0 °F 46% 30.11 in 10.0 mi ESE 8.1 mph 16.1 mph N/A   Scattered Clouds
5:53 PM 72.0 °F 51.1 °F 48% 30.12 in 10.0 mi SE 11.5 mph 17.3 mph N/A   Scattered Clouds
6:53 PM 70.0 °F 51.1 °F 51% 30.12 in 10.0 mi SSE 9.2 mph - N/A   Scattered Clouds
7:53 PM 68.0 °F 52.0 °F 56% 30.12 in 10.0 mi SE 6.9 mph - N/A   Partly Cloudy
8:53 PM 68.0 °F 53.1 °F 59% 30.13 in 10.0 mi SSE 9.2 mph - N/A   Clear
9:53 PM 68.0 °F 52.0 °F 56% 30.14 in 10.0 mi Variable 5.8 mph - N/A   Clear
10:53 PM 66.9 °F 53.1 °F 61% 30.15 in 10.0 mi SE 3.5 mph - N/A   Clear
11:53 PM 66.9 °F 54.0 °F 63% 30.15 in 10.0 mi ESE 5.8 mph - N/A   Clear